Culiacan, Mexico

2:52 PM MST on December 09, 2016 (GMT -0700)
Culiacan International

Weather History for MMCL - March, 2013

Change the Weather History Date:

Sunday, March 3, 2013

  Actual Average Record
Temperature  
Mean Temperature 71 °F -  
Max Temperature 92 °F 83 °F 92 °F (2013)
Min Temperature 50 °F 53 °F 50 °F (1997)
Cooling Degree Days 6    
Growing Degree Days 21 (Base 50)    
Moisture  
Dew Point 51 °F    
Average Humidity 42    
Maximum Humidity 86    
Minimum Humidity 8    
Precipitation  
Precipitation 0.00 in - - ()
Sea Level Pressure  
Sea Level Pressure 29.97 in    
Wind  
Wind Speed 2 mph ()    
Max Wind Speed 12 mph    
Max Gust Speed -    
Visibility 9.5 miles    
Events      
Averages and records for this station are not official NWS values.
T = Trace of Precipitation, MM = Missing Value Source: Averaged Metar Reports

Daily Weather History Graph

Daily Weather History Graph

Search for Another Location

Airport or City:

Trip Planner

Search our weather history database for the weather conditions in past years. The results will help you decide how hot, cold, wet, or windy it might be!

Date:

Astronomy

Mar. 03, 2013 Rise Set
Actual Time 6:30 AM MST 6:13 PM MST
Civil Twilight 6:07 AM MST 6:36 PM MST
Nautical Twilight 5:41 AM MST 7:02 PM MST
Astronomical Twilight 5:14 AM MST 7:29 PM MST
Moon No Moon Rise 10:29 AM MST (3/3)
Length of Visible Light 12h 28m
Length of Day
11h 43m
Waning Gibbous, 63% of the Moon is Illuminated
Mar 3
Waning Gibbous
Mar 4
Last Quarter
Mar 11
New
Mar 19
First Quarter
Mar 27
Full

Hourly Weather History & Observations

Time (MST) Temp. Heat Index Dew Point Humidity Pressure Visibility Wind Dir Wind Speed Gust Speed Precip Events Conditions
1:45 AM 51 °F - 48 °F 86% 30.01 in 6 mi Calm Calm - -  
4:40 AM 50 °F - 47 °F 85% 29.99 in 6 mi Calm Calm - -  
6:05 AM 57.2 °F - 48.2 °F 72% 29.97 in 10.0 mi Calm Calm - N/A   Clear
6:40 AM 59.0 °F - 46.4 °F 63% 29.97 in 10.0 mi Calm Calm - N/A   Clear
7:35 AM 51 °F - 42 °F 61% 30.04 in 10 mi Calm Calm - -   Haze
7:40 AM 64.4 °F - 48.2 °F 56% 30.00 in 10.0 mi Calm Calm - N/A   Clear
8:40 AM 69.8 °F - 48.2 °F 46% 30.00 in 10.0 mi Calm Calm - N/A   Clear
9:43 AM 82.4 °F 81.4 °F 53.6 °F 37% 30.01 in 10.0 mi Calm Calm - N/A   Clear
10:40 AM 81 °F - 41 °F 15% 30.05 in 10 mi SW 2.2 mph - -   Haze
10:40 AM 89.6 °F - 51.8 °F 27% 30.00 in 10.0 mi Calm Calm - N/A   Clear
11:40 AM 93.2 °F 91.9 °F 57.2 °F 30% 29.98 in 10.0 mi Calm Calm - N/A   Clear
12:42 PM 95.0 °F 95.2 °F 60.8 °F 32% 29.96 in 10.0 mi SSW 5.8 mph - N/A   Clear
1:40 PM 91 °F - 38 °F 8% 30.00 in 10 mi SW 4.5 mph - -   Haze
1:43 PM 95.0 °F 95.2 °F 60.8 °F 32% 29.97 in 10.0 mi WSW 11.5 mph - N/A   Clear
2:00 PM 91 °F - 38 °F 8% 29.87 in 10 mi SW 4.5 mph - -  
2:40 PM 95.0 °F 95.2 °F 60.8 °F 32% 29.94 in 10.0 mi SW 10.4 mph - N/A   Clear
3:40 PM 95.0 °F 95.2 °F 60.8 °F 32% 29.92 in 10.0 mi West 9.2 mph - N/A   Clear
4:40 PM 87 °F - 34 °F 8% 29.98 in 10 mi SW 4.5 mph - -   Haze
4:40 PM 91.4 °F 92.1 °F 62.6 °F 38% 29.90 in 10.0 mi West 8.1 mph - N/A   Clear
5:41 PM 86.0 °F 87.3 °F 64.4 °F 48% 29.93 in 10.0 mi Calm Calm - N/A   Clear
6:40 PM 78.8 °F - 53.6 °F 42% 29.94 in 10.0 mi Calm Calm - N/A   Clear
7:41 PM 77.0 °F - 53.6 °F 44% 29.94 in 10.0 mi Calm Calm - N/A   Clear
8:40 PM 75.2 °F - 51.8 °F 44% 29.97 in 10.0 mi Calm Calm - N/A   Clear
9:41 PM 73.4 °F - 53.6 °F 50% 29.98 in 10.0 mi Calm Calm - N/A   Clear
10:38 PM 61 °F - 51 °F 62% 30.04 in 6 mi South 2.2 mph - -